Theta_e
312 312 312 312 312 313 313 314 314 314 315 315 315 315 315 315 316 308 301 308 313 323 331 319 324 319 316 315 317 315 301 296 299 302 304 310 308 315 318 315 316 318 316 319 323
312 312 312 312 312 313 313 313 314 314 314 314 315 314 315 315 307 303 312 322 327 332 313 308 308 315 313 312 313 308 302 302 306 307 305 309 309 312 313 313 314 316 321 321 323
312 312 312 313 313 313 313 313 313 314 314 314 314 314 314 313 301 302 325 325 326 331 316 312 309 309 310 313 311 309 305 310 311 311 311 309 310 313 312 310 313 313 317 319 318
312 313 312 312 312 312 313 313 313 314 314 314 314 314 314 307 285 304 327 329 332 322 318 307 304 301 299 304 312 305 312 314 314 315 312 309 312 310 312 313 318 319 320 319 317
313 313 313 313 313 312 312 312 313 313 313 314 314 313 307 297 297 303 320 315 309 323 310 305 301 299 295 298 304 305 308 311 313 313 313 313 310 310 311 317 319 318 318 317 316
311 312 312 312 313 313 313 313 313 312 312 312 313 312 302 290 302 305 305 305 304 305 308 304 301 302 298 297 298 302 306 307 308 308 310 310 311 312 314 317 316 317 314 314 315
311 312 311 311 312 313 313 313 313 312 312 313 313 309 300 295 305 303 301 300 303 303 301 306 306 303 300 296 301 301 297 301 303 304 304 308 304 306 313 315 313 314 314 314 314
311 311 312 311 311 312 313 313 312 312 313 314 314 308 295 306 306 304 304 303 305 305 304 304 304 301 298 300 300 297 297 294 301 304 305 305 298 308 312 311 311 312 313 315 316
310 311 311 311 311 311 312 312 312 314 314 314 307 302 294 310 305 307 305 301 304 304 303 306 301 297 298 293 290 293 292 294 298 305 304 303 300 307 312 310 308 310 312 314 315
311 311 311 310 311 311 311 311 312 313 311 312 308 299 301 297 306 309 307 305 302 301 299 297 293 292 290 289 286 289 291 294 295 300 303 301 301 305 308 309 309 310 311 312 313
310 310 310 311 312 311 308 300 297 294 298 294 295 296 299 303 306 305 305 303 302 297 289 292 286 286 290 293 295 295 294 293 297 302 300 299 300 304 306 305 306 308 308 309 311
309 309 310 311 311 311 304 297 299 297 290 299 298 298 301 301 295 298 303 294 293 288 293 289 285 291 294 295 293 292 291 291 295 299 299 299 298 303 305 306 306 307 307 307 308
310 310 310 310 310 304 301 301 303 299 289 294 300 299 299 299 294 295 299 295 290 287 287 288 291 296 292 292 291 291 290 291 291 296 297 295 293 296 301 303 305 306 309 309 309
309 309 310 309 302 300 299 303 302 299 285 289 294 297 300 297 292 300 300 296 291 286 287 286 290 291 292 289 292 287 295 294 293 292 286 295 285 294 298 300 302 304 305 307 310
309 309 309 308 298 297 302 302 302 296 272 292 295 303 300 294 297 299 306 296 289 289 288 285 287 288 288 291 294 290 296 294 294 291 289 291 286 292 296 297 299 302 305 308 309
309 309 308 303 299 302 304 301 297 282 273 288 293 292 293 295 296 299 300 302 300 293 290 289 293 290 289 292 292 294 293 292 292 288 283 288 287 290 293 296 298 302 305 307 308
308 308 306 305 296 302 301 295 280 275 290 285 287 291 291 290 292 293 293 292 289 286 284 290 289 292 293 288 291 288 283 279 278 280 281 290 287 291 295 299 300 301 303 306 307
307 306 303 304 302 302 297 286 275 285 286 291 289 290 287 290 290 291 289 287 294 291 287 284 282 293 297 291 285 285 284 280 275 277 282 290 285 290 299 303 303 304 306 307 303
305 297 300 303 304 300 291 278 280 286 290 288 289 285 285 288 289 289 288 288 292 292 284 283 284 293 293 293 291 286 282 286 282 286 281 286 290 296 300 300 302 302 303 304 309
297 295 298 304 304 297 287 285 288 293 292 291 283 287 283 285 286 286 286 291 290 294 292 288 281 290 292 294 292 290 292 281 281 277 277 283 287 289 294 296 299 300 301 310 317
295 293 301 304 302 291 278 284 289 294 294 289 287 286 286 285 286 285 287 291 293 292 293 288 285 285 290 288 286 288 285 285 284 283 281 279 284 294 295 297 299 303 304 316 318
292 289 301 303 288 289 284 290 294 292 295 293 292 289 288 287 285 287 286 290 295 294 288 289 285 281 284 290 292 291 288 287 280 280 284 285 286 299 297 298 301 303 315 317 320
290 291 301 299 285 282 288 291 293 291 292 291 289 291 291 287 284 287 288 294 295 293 290 291 283 278 279 285 292 289 293 291 288 285 283 281 285 298 299 301 302 303 315 317 319
291 287 290 292 291 285 286 289 288 294 292 291 289 291 288 286 287 285 286 292 295 294 298 295 286 281 276 281 288 285 289 291 288 283 284 286 288 294 298 299 301 307 315 317 319
292 286 289 281 286 288 289 288 287 288 291 291 287 288 286 282 284 284 288 290 293 296 293 290 283 287 286 287 288 287 287 289 288 288 285 289 288 293 296 299 301 308 316 317 318
288 289 292 288 289 289 288 289 288 289 290 287 286 288 288 284 286 284 287 287 287 291 289 291 285 288 285 288 288 287 290 290 290 290 290 290 290 299 301 309 310 313 316 317 318
293 295 294 290 287 287 287 289 291 292 292 292 290 288 287 289 293 293 293 291 290 287 286 286 284 284 281 288 288 283 289 290 290 293 292 287 293 299 307 310 310 312 317 317 319
Wind_Speed
15 16 15 15 15 16 17 17 17 17 17 17 18 17 18 20 21 5 9 14 12 16 1 1 5 5 4 4 5 5 1 5 6 5 7 10 7 6 4 6 2 3 8 8 9
15 15 16 16 17 17 17 17 18 18 18 17 18 18 19 21 8 10 18 19 20 11 6 8 5 7 4 7 4 6 6 9 8 6 8 14 18 14 11 6 6 5 2 4 9
15 15 16 17 17 17 18 18 18 18 19 19 18 18 18 17 5 10 6 22 20 12 10 6 8 5 8 5 7 7 13 13 14 11 10 17 17 16 12 16 4 5 6 6 3
16 16 16 16 17 17 18 18 19 19 18 18 18 19 20 2 8 1 4 3 11 15 8 6 6 6 6 14 14 9 13 17 21 17 15 18 17 16 16 14 12 7 14 5 7
18 18 19 19 19 18 18 19 19 19 19 18 16 14 6 4 12 17 20 21 14 8 17 11 11 5 7 6 10 18 10 14 17 19 19 17 20 20 21 18 18 8 11 11 9
19 20 21 22 22 21 19 18 18 19 20 18 15 11 5 11 10 12 12 9 8 5 13 10 6 8 4 6 11 4 10 18 15 17 18 20 23 21 23 21 18 14 11 11 12
19 20 22 23 24 24 24 23 20 19 20 18 15 9 11 20 6 7 7 7 9 9 5 12 8 6 7 4 8 10 13 16 17 10 10 7 22 25 21 17 17 15 10 10 9
19 20 22 24 25 25 25 27 27 24 19 15 11 8 11 13 11 19 17 10 10 11 10 9 3 8 5 5 6 4 5 20 19 18 11 3 30 18 8 13 17 12 14 17 19
19 20 21 24 25 25 25 27 31 23 8 4 2 3 12 11 6 14 16 11 5 5 6 8 3 7 2 4 1 7 17 18 17 11 8 15 39 17 15 11 10 14 18 18 18
20 21 22 23 21 22 23 24 23 9 6 8 5 3 8 9 6 10 6 12 9 3 2 2 4 6 5 7 18 12 19 20 17 6 16 22 32 21 17 18 18 22 21 19 20
23 22 23 24 25 21 13 8 8 5 5 6 16 18 18 33 23 16 9 4 5 3 7 3 4 20 22 18 11 9 18 8 2 13 16 18 18 20 14 9 14 21 15 17 18
26 26 26 26 24 23 3 1 5 8 13 8 17 22 27 29 26 28 16 2 2 4 6 5 21 14 10 7 14 15 14 16 8 9 11 15 23 24 21 18 19 20 17 15 8
24 26 25 28 29 3 4 5 8 5 2 9 19 15 17 12 21 26 15 9 6 5 5 11 4 9 17 12 15 16 20 15 12 14 23 12 12 12 13 11 12 9 13 11 10
24 24 25 26 6 5 6 8 8 0 2 7 9 5 15 3 5 20 21 13 5 10 8 10 9 14 12 22 13 20 8 16 16 11 16 9 19 23 18 23 18 13 10 10 13
24 24 23 19 6 4 8 8 6 5 5 14 10 4 4 9 7 6 11 16 21 14 8 10 7 2 13 15 14 20 12 15 13 11 16 19 7 26 6 18 14 12 11 15 14
24 24 22 5 2 9 9 8 5 6 4 6 10 18 16 16 7 9 10 5 0 12 17 14 8 11 9 11 9 5 8 10 10 4 10 9 9 29 16 22 14 6 12 14 13
27 28 16 2 6 4 7 5 6 5 5 11 13 15 11 15 11 14 8 7 5 4 2 3 10 15 12 12 9 5 2 2 3 6 18 13 10 23 6 3 8 11 12 13 11
28 25 4 6 7 3 4 6 6 9 11 19 13 9 9 14 10 15 12 7 6 2 1 2 4 6 2 2 2 6 10 6 8 4 7 9 16 18 19 30 21 20 17 15 4
23 4 3 5 7 3 6 5 2 5 13 16 19 3 4 7 7 9 6 3 4 3 3 2 4 5 9 7 7 6 10 5 5 15 1 8 10 19 21 23 21 22 9 12 7
4 4 4 3 4 5 5 3 3 9 18 16 9 7 8 6 7 7 3 5 9 8 1 1 3 7 5 4 5 10 3 5 4 7 10 7 8 12 7 10 12 11 15 6 9
3 5 4 2 5 6 3 5 11 11 14 6 10 5 6 4 4 5 9 8 7 7 8 4 4 4 5 4 5 2 4 4 4 4 10 6 10 7 13 12 15 15 12 16 16
4 4 4 4 5 1 3 9 14 13 8 6 6 3 2 4 5 5 2 4 10 8 6 4 2 4 10 16 17 7 5 6 4 10 5 11 20 8 11 11 12 10 12 15 17
3 4 4 6 4 4 5 11 7 13 8 4 6 2 1 5 5 6 6 3 5 3 1 4 3 4 10 4 5 4 3 2 6 6 18 6 10 10 9 15 16 4 11 13 14
3 5 6 5 1 2 7 7 8 11 8 10 6 3 5 5 3 6 11 3 1 4 12 4 4 6 7 9 6 10 9 6 2 3 10 18 16 21 17 20 19 7 12 17 17
2 2 1 5 5 7 7 5 10 7 5 5 5 7 8 5 12 6 7 13 8 7 3 6 5 9 15 16 17 17 19 11 9 6 3 6 10 19 19 20 21 13 16 17 18
3 4 4 4 5 6 5 2 9 13 4 7 5 14 10 8 13 19 14 8 9 6 5 3 4 3 15 19 20 21 19 13 14 11 10 16 18 17 20 14 7 20 22 21 20
4 4 2 4 4 3 3 10 8 15 7 9 14 14 12 15 11 17 18 14 11 9 8 7 5 3 9 9 4 7 12 13 7 5 3 5 8 11 6 14 9 3 22 22 21
Wind_Direction
352 351 347 342 338 336 335 333 332 331 328 329 326 328 329 322 318 302 240 226 198 236 85 239 200 200 185 229 199 133 136 232 240 209 256 338 359 290 323 358 74 196 154 197 211
350 346 342 338 333 330 328 326 324 325 323 323 322 328 328 324 302 248 239 224 224 225 214 223 223 191 209 203 205 150 194 229 214 252 292 311 307 291 326 333 321 327 16 24 160
355 350 344 336 329 325 322 320 319 316 315 318 320 324 328 326 305 248 276 228 237 223 235 206 241 237 213 222 200 199 218 232 257 259 271 284 285 291 302 299 247 242 298 328 214
351 347 341 335 329 325 322 318 314 311 311 313 317 323 327 309 257 107 6 343 251 232 232 199 215 203 204 224 223 255 224 227 254 253 258 260 282 281 275 269 274 261 305 280 283
347 343 339 333 328 323 320 317 314 311 308 305 306 316 347 277 254 272 308 322 309 186 200 201 198 170 210 224 237 244 241 231 242 257 256 262 264 264 276 277 276 246 252 251 249
344 340 336 333 328 323 317 311 306 303 301 301 299 302 267 264 238 270 291 324 311 288 193 200 212 198 266 232 222 305 240 254 253 250 253 255 260 261 269 268 279 277 239 226 227
341 335 332 330 326 323 317 312 304 295 292 291 290 283 255 250 231 285 299 288 278 280 301 217 221 220 180 275 251 258 271 277 251 248 256 270 265 249 251 267 269 271 290 298 277
336 330 327 324 323 320 314 312 306 299 289 275 270 268 264 261 253 259 265 272 253 240 234 251 242 223 199 285 314 259 245 243 248 248 253 261 260 253 258 248 260 266 275 279 275
332 325 322 319 319 317 314 309 301 307 295 212 171 164 267 290 235 249 226 239 256 251 226 254 194 190 183 145 285 231 243 241 246 228 233 204 258 256 249 246 270 276 277 278 277
330 327 322 321 320 320 317 308 295 315 128 152 203 262 249 269 279 304 190 196 234 228 315 257 208 199 163 172 213 219 225 236 247 220 230 241 262 263 265 269 269 269 267 268 263
332 332 329 329 333 328 334 351 10 342 310 243 277 257 270 284 289 288 333 7 250 193 176 206 186 219 209 216 237 261 246 268 232 216 227 244 257 261 252 243 262 265 269 261 256
337 338 335 330 325 320 113 334 294 245 307 309 285 275 261 263 277 283 297 276 296 199 167 197 229 235 247 219 231 249 264 266 290 289 235 246 255 263 264 258 247 255 258 252 256
338 334 336 332 323 1 227 247 295 22 318 307 320 308 316 227 243 263 267 261 229 249 225 217 219 229 240 239 245 230 236 254 261 294 288 292 284 284 266 250 257 262 249 265 240
335 332 332 338 345 333 293 298 311 39 51 287 332 325 325 244 277 241 252 231 232 215 246 254 227 254 249 230 230 246 241 237 254 249 258 213 279 267 266 263 263 241 247 245 247
331 329 329 328 273 308 262 304 325 53 46 340 296 256 249 296 272 265 280 199 225 216 178 231 284 169 236 242 224 252 259 231 236 234 252 263 294 266 250 257 246 247 247 251 255
326 325 328 333 267 241 296 317 50 45 306 314 338 347 352 355 343 323 16 33 282 240 229 226 219 247 246 264 256 326 244 244 253 230 250 213 198 272 245 244 245 217 242 254 265
325 319 316 241 245 302 339 32 37 85 290 349 354 350 5 352 348 9 90 194 140 292 70 268 234 237 241 257 270 207 52 248 254 195 237 157 212 235 249 279 222 237 246 252 244
324 315 266 203 238 314 27 40 64 17 329 334 338 343 346 359 352 349 3 16 138 195 144 255 285 174 32 99 271 213 175 193 193 204 228 276 230 241 231 261 265 259 246 251 238
322 332 282 255 230 109 62 34 247 348 320 318 325 325 280 4 325 356 334 351 19 21 142 191 252 341 319 308 137 307 221 177 287 273 272 227 275 283 275 275 267 268 237 244 193
319 343 280 203 119 65 71 264 281 322 319 321 321 327 348 334 358 345 303 48 349 350 355 217 292 253 287 299 240 206 251 174 205 199 239 254 256 236 256 261 265 261 244 169 145
20 23 267 99 63 49 120 252 309 320 322 313 334 349 345 334 285 328 349 335 357 341 330 309 159 297 349 241 217 276 217 190 159 194 219 257 249 197 263 259 278 296 202 154 155
352 27 283 67 36 40 333 315 308 317 317 344 313 4 335 330 345 347 259 335 350 330 332 308 154 270 259 266 256 257 255 171 214 238 258 243 252 312 252 278 285 240 162 159 158
348 279 339 78 28 322 289 314 282 331 330 0 296 34 311 344 344 289 357 171 224 322 315 331 327 325 328 319 43 241 103 5 282 204 237 249 265 226 283 276 280 227 148 147 143
350 357 332 38 131 335 320 332 318 327 306 351 293 23 353 307 236 276 301 280 190 236 274 239 227 201 221 253 306 289 275 306 86 277 248 243 281 273 272 278 292 143 172 156 156
28 286 224 306 326 317 312 287 310 326 299 319 306 352 325 293 306 251 313 306 292 282 155 155 232 225 255 265 266 262 265 255 234 233 236 302 297 291 289 281 266 181 174 154 154
20 5 346 276 275 328 321 330 304 327 302 295 305 307 300 267 260 281 278 264 255 253 174 131 268 304 277 271 256 252 252 235 232 235 248 250 273 274 277 288 272 173 167 162 159
318 310 261 264 285 348 285 318 315 317 284 276 297 297 291 275 273 282 272 257 241 195 189 180 197 261 271 342 109 229 238 232 231 195 208 241 237 303 307 336 39 255 163 159 158